• Join FlightAware (Why Join?)
  • Login
  • US Flag GB Flag 
06:31 EDT


 

Airport Tracker/Info


-or-


 

Live Flight TrackerFlight Track Log ✈ C-FZQP ✈ 10-Mar-2012 ✈ KAPA - KGEU

Flight Track Log - Related Links

Times and Time Zones

All times are in EST time to prevent confusion due to time zone crossing. See the C-FZQP flight status page for this flight to view local times or setup timezone preferences in your user account.

Time Position Orientation Groundspeed Altitude Reporting Facility
EST Latitude Longitude Course Direction KTS MPH feet Rate Location/Type
20:38 39.5367 -104.8686 212° Southwest 185 213 7,900  Level Denver Center
20:39 39.4789 -104.9156 212° Southwest 224 258 8,400 1,320 Climbing Denver Center
20:40 39.4108 -104.9708 212° Southwest 278 320 10,600 2,700 Climbing Denver Center
20:41 39.3325 -105.0344 192° South 317 365 13,800 3,300 Climbing Denver Center
20:42 39.2450 -105.0575 181° South 331 381 17,300 3,360 Climbing Denver Center
20:43 39.1514 -105.0594 203° Southwest 331 381 20,600 2,940 Climbing Denver Center
20:44 39.0603 -105.1094 204° Southwest 341 392 23,200 2,520 Climbing Denver Center
20:45 38.9650 -105.1647 208° Southwest 365 420 25,700 2,400 Climbing Denver Center
20:46 38.8697 -105.2306 229° Southwest 385 443 28,000 2,040 Climbing Denver Center
20:47 38.7958 -105.3383 229° Southwest 404 465 29,800 1,680 Climbing Denver Center
20:48 38.7281 -105.4378 228° Southwest 415 478 31,400 1,200 Climbing Denver Center
20:49 38.6456 -105.5561 228° Southwest 437 503 32,200 1,320 Climbing Denver Center
20:50 38.5650 -105.6714 228° Southwest 445 512 34,100 1,800 Climbing Denver Center
20:51 38.4886 -105.7808 233° Southwest 428 493 35,900 900 Climbing Denver Center
20:52 38.4103 -105.9114 227° Southwest 423 487 36,000  Climbing Denver Center
20:53 38.3356 -106.0153 229° Southwest 437 503 36,000  Level Denver Center
20:54 38.2567 -106.1319 227° Southwest 444 511 36,000  Level Denver Center
20:55 38.1633 -106.2592 228° Southwest 450 518 36,000  Level Denver Center
20:56 38.0944 -106.3569 230° Southwest 451 519 36,000  Level Denver Center
20:57 38.0092 -106.4836 228° Southwest 442 509 36,000  Level Denver Center
20:58 37.9256 -106.5994 228° Southwest 442 509 36,000  Level Denver Center
20:59 37.8358 -106.7253 228° Southwest 442 509 36,000 120 Level Denver Center
21:00 37.7625 -106.8275 228° Southwest 442 509 36,300 300 Climbing Denver Center
21:01 37.6703 -106.9581 227° Southwest 442 509 36,700 300 Climbing Denver Center
21:02 37.5864 -107.0728 229° Southwest 448 516 37,000 120 Climbing Denver Center
21:03 37.5108 -107.1819 227° Southwest 454 522 37,000  Level Denver Center
21:04 37.4267 -107.2961 228° Southwest 454 522 37,000  Level Denver Center
21:05 37.3339 -107.4256 228° Southwest 461 531 37,000  Level Denver Center
21:06 37.2475 -107.5442 228° Southwest 461 531 37,000  Level Denver Center
21:07 37.1714 -107.6500 228° Southwest 466 536 37,000  Level Denver Center
21:08 37.0783 -107.7783 227° Southwest 459 528 37,000  Level Denver Center
21:09 36.9933 -107.8939 227° Southwest 459 528 37,000  Level Denver Center
21:10 36.9108 -108.0064 228° Southwest 459 528 37,000  Level Denver Center
21:11 36.8364 -108.1083 227° Southwest 459 528 37,000  Level Denver Center
21:12 36.7450 -108.2306 227° Southwest 447 514 37,000  Level Denver Center
21:13 36.6639 -108.3400 226° Southwest 442 509 37,000  Level Denver Center
21:14 36.5808 -108.4489 228° Southwest 436 502 37,000  Level Denver Center
21:15 36.5083 -108.5475 227° Southwest 436 502 37,000  Level Denver Center
21:16 36.4164 -108.6714 227° Southwest 436 502 37,000  Level Denver Center
21:17 36.3328 -108.7822 227° Southwest 436 502 37,000  Level Denver Center
21:18 36.2558 -108.8853 228° Southwest 441 507 37,000  Level Denver Center
21:19 36.1633 -109.0106 225° Southwest 446 513 37,000  Level Denver Center
21:20 36.0756 -109.1181 226° Southwest 446 513 37,000  Level Denver Center
21:22 35.9297 -109.3031 226° Southwest 459 528 37,000  Level Albuquerque Center
21:23 35.8444 -109.4136 227° Southwest 453 521 37,000  Level Albuquerque Center
21:24 35.7483 -109.5392 226° Southwest 453 521 37,000  Level Albuquerque Center
21:25 35.6628 -109.6494 227° Southwest 453 521 37,000  Level Albuquerque Center
21:26 35.5856 -109.7519 226° Southwest 458 527 37,000  Level Albuquerque Center
21:27 35.4978 -109.8642 226° Southwest 463 533 37,000  Level Albuquerque Center
21:28 35.4011 -109.9883 227° Southwest 463 533 37,000  Level Albuquerque Center
21:29 35.3172 -110.1003 228° Southwest 463 533 37,000  Level Albuquerque Center
21:30 35.2397 -110.2044 226° Southwest 463 533 37,000 -600 Level Albuquerque Center
21:31 35.1514 -110.3181 227° Southwest 463 533 35,900 -1,320 Descending Albuquerque Center
21:32 35.0544 -110.4439 227° Southwest 463 533 34,400 -1,440 Descending Albuquerque Center
21:33 34.9658 -110.5597 227° Southwest 468 539 33,100 -1,260 Descending Albuquerque Center
21:34 34.8858 -110.6656 229° Southwest 468 539 31,900 -1,380 Descending Albuquerque Center
21:35 34.7989 -110.7858 227° Southwest 476 548 30,400 -1,800 Descending Albuquerque Center
21:36 34.7078 -110.9033 225° Southwest 481 554 28,300 -1,620 Descending Albuquerque Center
21:37 34.6147 -111.0181 227° Southwest 481 554 27,200 -1,800 Descending Albuquerque Center
21:38 34.5189 -111.1422 225° Southwest 481 554 24,800 -3,000 Descending Albuquerque Center
21:39 34.4364 -111.2417 227° Southwest 468 539 21,200 -3,660 Descending Albuquerque Center
21:40 34.3383 -111.3703 227° Southwest 468 539 17,500 -3,600 Descending Albuquerque Center
21:41 34.2556 -111.4769 226° Southwest 462 532 14,000 -3,120 Descending Albuquerque Center
21:42 34.1811 -111.5711 226° Southwest 430 495 11,300 -1,560 Descending Albuquerque Center
21:43 34.1244 -111.6408 227° Southwest 364 419 10,900 -300 Descending Albuquerque Center
21:44 34.0675 -111.7133 221° Southwest 314 361 10,800 -780 Descending Albuquerque Center
21:45 34.0047 -111.7800 223° Southwest 303 349 9,400 -1,440 Descending Albuquerque Center
21:46 33.9481 -111.8447 233° Southwest 290 334 8,000 -1,020 Descending Albuquerque Center
21:47 33.8903 -111.9367 243° Southwest 230 265 7,000 -780 Descending Albuquerque Center
21:48 33.8650 -111.9953 242° Southwest 211 243 6,300 -600 Descending Albuquerque Center
21:49 33.8308 -112.0733 248° West 257 296 5,900 -720 Descending Albuquerque Center
21:50 33.8047 -112.1517 227° Southwest 269 310 4,900 -720 Descending Albuquerque Center
21:51 33.7672 -112.1994 189° South 205 236 4,500 -720 Descending Albuquerque Center
21:52 33.7189 -112.2092 187° South 213 245 3,600 -600 Descending Albuquerque Center
21:53 33.6706 -112.2164 203° Southwest 156 180 3,400 -300 Descending Albuquerque Center
21:54 33.6344 -112.2344 205° Southwest 142 163 3,100 -420 Descending Albuquerque Center
21:55 33.5981 -112.2547 205° Southwest 145 167 2,600 -660 Descending Albuquerque Center
21:56 33.5619 -112.2750 209° Southwest 138 159 1,800 -780 Descending Albuquerque Center
21:57 33.5339 -112.2933 209° Southwest 131 151 1,100 -720 Descending Albuquerque Center